DW4497 Weather Reports


time (UTC)temp
F
wind
direction
speed
knots
gust
knots
rain 1hr
in
rain 24hr
in
rain mn
in
humidity
%
barometer
mb
20260510100542 50 236 1.7 6.1 0.00 0.00 0.00 89 1007.7
20260510100051 50 227 2.6 6.1 0.00 0.00 0.00 89 1007.2
20260510095542 50 205 1.7 6.1 0.00 0.00 0.00 89 1007.0
20260510095039 50 119 1.7 6.1 0.00 0.00 0.00 89 1006.9
20260510094538 50 289 1.7 5.2 0.00 0.00 0.00 90 1006.9
20260510094038 50 161 0.9 4.3 0.00 0.00 0.00 90 1007.2
20260510093537 50 232 1.7 4.3 0.00 0.00 0.00 89 1007.3
20260510093041 50 213 1.7 5.2 0.00 0.00 0.00 89 1007.3
20260510092537 50 227 1.7 5.2 0.00 0.00 0.00 89 1007.4
20260510092036 50 236 1.7 4.3 0.00 0.00 0.00 89 1007.3
20260510091537 50 235 0.9 4.3 0.00 0.00 0.00 88 1007.1
20260510091034 50 232 1.7 4.3 0.00 0.00 0.00 88 1007.1
20260510090536 51 234 1.7 3.5 0.00 0.00 0.00 88 1007.0
20260510090035 51 222 0.9 4.3 0.00 0.00 0.00 88 1006.9
20260510085532 51 240 0.9 2.6 0.00 0.00 0.00 87 1006.8
20260510085033 51 244 0.9 2.6 0.00 0.00 0.00 87 1006.9
20260510084545 51 240 0.9 5.2 0.00 0.00 0.00 87 1006.8
20260510084032 51 239 1.7 5.2 0.00 0.00 0.00 87 1006.8
20260510083534 52 229 2.6 5.2 0.00 0.00 0.00 86 1006.8
20260510083037 52 221 0.9 3.5 0.00 0.00 0.00 86 1006.7
20260510082532 52 218 0.9 3.5 0.00 0.00 0.00 86 1006.7
20260510082031 52 149 0.9 4.3 0.00 0.00 0.00 86 1006.8
20260510081535 52 289 0.9 6.1 0.00 0.00 0.00 86 1006.9
20260510081031 52 155 0.9 5.2 0.00 0.00 0.00 85 1007.0
20260510080531 52 224 2.6 5.2 0.00 0.00 0.00 85 1007.1
20260510080030 52 226 1.7 4.3 0.00 0.00 0.00 85 1007.2
20260510075530 52 182 0.9 6.1 0.00 0.00 0.00 85 1007.2
20260510075033 52 211 1.7 6.1 0.00 0.00 0.00 85 1007.1
20260510074529 53 225 2.6 6.1 0.00 0.00 0.00 84 1007.3
20260510074029 53 239 0.9 7.0 0.00 0.00 0.00 84 1007.2
20260510073529 53 182 1.7 7.0 0.00 0.00 0.00 83 1007.2
20260510073044 53 186 0.9 5.2 0.00 0.00 0.00 83 1007.0
20260510072528 53 202 0.9 9.6 0.00 0.00 0.00 82 1007.1
20260510072031 53 232 2.6 9.6 0.00 0.00 0.00 82 1007.0
20260510071529 53 261 2.6 10.4 0.00 0.00 0.00 83 1006.9
20260510071027 53 224 2.6 11.3 0.00 0.00 0.00 82 1006.8
20260510070526 53 235 3.5 11.3 0.00 0.00 0.00 82 1006.6
20260510070027 53 231 2.6 9.6 0.00 0.00 0.00 82 1006.7
20260510065526 53 226 2.6 8.7 0.00 0.00 0.00 82 1006.9
20260510065028 53 190 2.6 11.3 0.00 0.00 0.00 81 1007.1
20260510064525 53 242 3.5 11.3 0.00 0.00 0.00 81 1007.0
20260510064025 53 214 3.5 7.8 0.00 0.00 0.00 81 1007.0
20260510063524 53 227 2.6 7.0 0.00 0.00 0.00 79 1007.0
20260510063024 53 227 1.7 7.8 0.00 0.00 0.00 79 1007.0
20260510062524 53 211 4.3 10.4 0.00 0.00 0.00 79 1006.9
20260510062024 53 228 3.5 8.7 0.00 0.00 0.00 79 1007.0
20260510061524 53 204 3.5 8.7 0.00 0.00 0.00 79 1006.9
20260510061023 53 130 2.6 8.7 0.00 0.00 0.00 79 1006.9
20260510060523 53 127 2.6 6.1 0.00 0.00 0.00 79 1006.8
20260510060034 53 234 1.7 10.4 0.00 0.00 0.00 79 1006.9
20260510055522 53 192 3.5 10.4 0.00 0.00 0.00 79 1006.9
20260510055022 53 232 1.7 8.7 0.00 0.00 0.00 79 1007.0
20260510054522 53 196 1.7 7.0 0.00 0.00 0.00 78 1007.0
20260510054022 53 192 1.7 11.3 0.00 0.00 0.00 78 1007.1
20260510053521 53 196 4.3 11.3 0.00 0.00 0.00 78 1007.1
20260510053021 53 228 2.6 9.6 0.00 0.00 0.00 78 1007.1
20260510052521 54 222 3.5 13.0 0.00 0.00 0.00 78 1007.1
20260510052024 54 191 3.5 13.0 0.00 0.00 0.00 77 1007.0
20260510051521 54 342 3.5 12.2 0.00 0.00 0.00 77 1007.2
20260510051019 53 219 4.3 9.6 0.00 0.00 0.00 78 1007.0
20260510050519 53 259 4.3 12.2 0.00 0.00 0.00 78 1007.1
20260510050018 53 221 4.3 12.2 0.00 0.00 0.00 78 1006.9
20260510045517 53 148 3.5 10.4 0.00 0.00 0.00 78 1006.9
20260510045016 53 253 2.6 10.4 0.00 0.00 0.00 79 1006.8
20260510044514 52 221 1.7 7.8 0.00 0.00 0.00 79 1006.8
20260510044013 52 122 1.7 7.8 0.00 0.00 0.00 80 1006.8
20260510043514 51 151 0.9 7.0 0.00 0.00 0.00 80 1006.8
20260510043012 51 178 1.7 5.2 0.00 0.00 0.00 80 1006.7
20260510042511 51 134 0.9 4.3 0.00 0.00 0.00 80 1006.7
20260510042010 51 228 1.7 4.3 0.00 0.00 0.00 81 1006.8
20260510041509 51 203 0.9 3.5 0.00 0.00 0.00 81 1006.7
20260510041011 51 94 0.0 4.3 0.00 0.00 0.00 81 1006.5
20260510040507 51 94 0.9 5.2 0.00 0.00 0.00 81 1006.3
20260510040006 51 125 0.9 5.2 0.00 0.00 0.00 81 1006.2
20260510035505 51 150 0.9 6.1 0.00 0.00 0.00 81 1006.2
20260510035005 51 140 0.9 7.0 0.00 0.00 0.00 80 1006.3
20260510034504 51 195 1.7 4.3 0.00 0.00 0.00 80 1006.4
20260510034003 51 126 0.9 2.6 0.00 0.00 0.00 80 1006.6
20260510033504 51 225 0.9 2.6 0.00 0.00 0.00 80 1006.8
20260510033003 51 225 0.9 2.6 0.00 0.00 0.00 80 1006.9
20260510032502 51 242 0.9 2.6 0.00 0.00 0.00 80 1006.9
20260510032004 51 208 0.9 5.2 0.00 0.00 0.00 79 1007.0
20260510031502 51 238 1.7 5.2 0.00 0.00 0.00 79 1007.0
20260510031002 51 207 0.9 5.2 0.00 0.00 0.00 79 1006.9
20260510030502 51 207 0.9 6.1 0.00 0.00 0.00 79 1006.8
20260510030001 52 249 0.9 6.1 0.00 0.00 0.00 79 1006.9
20260510025601 52 223 0.9 3.5 0.00 0.00 0.00 78 1006.9
20260510025100 52 214 1.7 5.2 0.00 0.00 0.00 78 1007.0
20260510024601 52 221 2.6 5.2 0.00 0.00 0.00 78 1007.1
20260510024059 52 244 0.9 5.2 0.00 0.00 0.00 78 1007.0
20260510023559 52 237 0.9 6.1 0.00 0.00 0.00 78 1007.0
20260510023059 52 126 1.7 6.1 0.00 0.00 0.00 78 1007.1
20260510022559 52 108 1.7 7.0 0.00 0.00 0.00 78 1007.1
20260510022059 52 139 1.7 7.8 0.00 0.00 0.00 77 1006.9
20260510021559 52 122 2.6 7.8 0.00 0.00 0.00 77 1006.9
20260510021058 52 113 2.6 6.1 0.00 0.00 0.00 77 1006.8
20260510020558 52 51 1.7 7.8 0.00 0.00 0.00 77 1006.9
20260510020057 52 130 2.6 7.0 0.00 0.00 0.00 77 1007.1
20260510015556 52 159 1.7 8.7 0.00 0.00 0.00 77 1007.2
20260510015055 52 105 2.6 8.7 0.00 0.00 0.00 76 1007.1
20260510014600 52 236 2.6 7.0 0.00 0.00 0.00 77 1007.3
20260510014055 52 238 1.7 7.0 0.00 0.00 0.00 76 1007.2
20260510013555 52 207 2.6 7.0 0.00 0.00 0.00 76 1007.2
20260510013109 52 194 1.7 7.8 0.00 0.00 0.00 76 1007.2
20260510012554 52 130 1.7 7.8 0.00 0.00 0.00 76 1007.4
20260510012054 52 200 0.9 7.8 0.00 0.00 0.00 76 1007.4
20260510011554 52 164 0.9 5.2 0.00 0.00 0.00 76 1007.3
20260510011053 52 105 1.7 4.3 0.00 0.00 0.00 76 1007.4
20260510010553 51 239 0.9 4.3 0.00 0.00 0.00 76 1007.4
20260510010053 51 250 1.7 4.3 0.00 0.00 0.00 76 1007.3
20260510005553 51 164 1.7 6.1 0.00 0.00 0.00 76 1007.5
20260510005052 51 144 0.9 8.7 0.00 0.00 0.00 76 1007.5
20260510004554 51 163 2.6 8.7 0.00 0.00 0.00 76 1007.5
20260510004052 51 180 0.9 4.3 0.00 0.00 0.00 76 1007.6
20260510003552 51 138 1.7 5.2 0.00 0.00 0.00 76 1007.7
20260510003054 51 223 1.7 5.2 0.00 0.00 0.00 76 1007.7
20260510002551 52 229 0.9 5.2 0.00 0.00 0.00 76 1007.8
20260510002051 52 225 0.9 5.2 0.00 0.00 0.00 76 1007.6
20260510001554 52 134 0.9 5.2 0.00 0.00 0.00 76 1007.6
20260510001051 52 126 0.9 6.1 0.00 0.00 0.00 76 1007.6
20260510000551 52 113 1.7 3.5 0.00 0.00 0.00 77 1007.6
20260510000051 52 228 0.0 3.5 0.00 0.00 0.00 77 1007.6
20260509235550 52 156 0.9 3.5 0.00 0.00 0.00 77 1007.7
20260509235050 52 215 1.7 3.5 0.00 0.00 0.00 77 1007.7
20260509234550 52 222 0.9 2.6 0.00 0.00 0.00 77 1007.6
20260509234050 52 222 0.9 3.5 0.00 0.00 0.00 76 1007.7
20260509233553 52 224 0.9 3.5 0.00 0.00 0.00 76 1007.7
20260509233053 52 231 0.9 6.1 0.00 0.00 0.00 75 1007.7
20260509232551 52 189 0.9 6.1 0.00 0.00 0.00 75 1007.7
20260509232049 52 215 0.9 5.2 0.00 0.00 0.00 75 1007.7
20260509231556 52 212 0.9 5.2 0.00 0.00 0.00 75 1007.6
20260509231049 52 145 1.7 6.1 0.00 0.00 0.00 74 1007.7
20260509230549 52 90 1.7 4.3 0.00 0.00 0.00 74 1007.6
20260509230049 52 222 0.9 5.2 0.00 0.00 0.00 74 1007.5
20260509225549 52 209 1.7 10.4 0.00 0.00 0.00 73 1007.5
20260509225047 52 238 1.7 7.0 0.00 0.00 0.00 73 1007.6
20260509224547 52 116 1.7 6.1 0.00 0.00 0.00 73 1007.6
20260509224046 52 111 1.7 6.1 0.00 0.00 0.00 73 1007.6
20260509223546 52 104 0.9 6.1 0.00 0.00 0.00 73 1007.7
20260509223046 52 148 0.9 6.1 0.00 0.00 0.00 73 1007.7
20260509222546 52 146 1.7 7.8 0.00 0.00 0.00 73 1007.7
20260509222045 52 78 2.6 7.8 0.00 0.00 0.00 73 1007.8
20260509221545 52 136 2.6 7.0 0.00 0.00 0.00 73 1007.9
20260509221045 52 138 0.9 7.8 0.00 0.00 0.00 73 1007.9
20260509220544 52 122 0.9 9.6 0.00 0.00 0.00 73 1007.9
20260509220051 52 169 2.6 9.6 0.00 0.00 0.00 73 1007.8
20260509215545 52 104 2.6 8.7 0.00 0.00 0.00 72 1007.8
20260509215044 52 183 1.7 8.7 0.00 0.00 0.00 73 1007.8
20260509214544 52 269 0.9 9.6 0.00 0.00 0.00 73 1007.8
20260509214045 52 171 1.7 9.6 0.00 0.00 0.00 72 1008.0
20260509213542 52 157 3.5 7.8 0.00 0.00 0.00 72 1008.0
20260509213042 52 119 2.6 7.0 0.00 0.00 0.00 72 1008.1
20260509212544 52 105 1.7 9.6 0.00 0.00 0.00 72 1008.0
20260509212041 52 126 2.6 9.6 0.00 0.00 0.00 72 1008.1
20260509211546 52 221 1.7 8.7 0.00 0.00 0.00 71 1008.1
20260509211042 53 247 2.6 10.4 0.00 0.00 0.00 71 1008.2
20260509210540 53 107 1.7 10.4 0.00 0.00 0.00 71 1008.2
20260509210041 53 93 0.9 6.1 0.00 0.00 0.00 71 1008.3
20260509205539 53 171 2.6 8.7 0.00 0.00 0.00 70 1008.3
20260509205040 53 223 3.5 8.7 0.00 0.00 0.00 70 1008.3
20260509204538 53 105 1.7 7.8 0.00 0.00 0.00 69 1008.2
20260509204038 53 44 0.9 6.1 0.00 0.00 0.00 68 1008.3
20260509203537 53 98 3.5 10.4 0.00 0.00 0.00 68 1008.3
20260509203037 54 126 2.6 10.4 0.00 0.00 0.00 68 1008.5
20260509202537 54 255 2.6 9.6 0.00 0.00 0.00 68 1008.4
20260509202041 54 254 2.6 10.4 0.00 0.00 0.00 68 1008.4
20260509201537 54 226 4.3 10.4 0.00 0.00 0.00 66 1008.4
20260509201036 55 234 3.5 7.8 0.00 0.00 0.00 65 1008.3
20260509200536 55 163 3.5 7.8 0.00 0.00 0.00 63 1008.3
20260509200040 55 234 1.7 6.1 0.00 0.00 0.00 63 1008.3
20260509195540 55 220 2.6 8.7 0.00 0.00 0.00 63 1008.3
20260509195035 55 225 2.6 8.7 0.00 0.00 0.00 62 1008.4
20260509194536 55 219 1.7 8.7 0.00 0.00 0.00 62 1008.4
20260509194034 55 182 2.6 9.6 0.00 0.00 0.00 62 1008.5
20260509193533 55 130 3.5 9.6 0.00 0.00 0.00 61 1008.5
20260509193033 55 231 2.6 8.7 0.00 0.00 0.00 61 1008.6
20260509192534 55 125 1.7 10.4 0.00 0.00 0.00 61 1008.5
20260509192037 55 248 3.5 11.3 0.00 0.00 0.00 61 1008.6
20260509191533 55 214 1.7 11.3 0.00 0.00 0.00 61 1008.5
20260509191033 55 137 4.3 9.6 0.00 0.00 0.00 60 1008.6
20260509190532 55 214 2.6 9.6 0.00 0.00 0.00 60 1008.5
20260509190031 55 117 3.5 7.8 0.00 0.00 0.00 58 1008.6
20260509185531 55 119 2.6 8.7 0.00 0.00 0.00 58 1008.8
20260509185030 55 230 2.6 8.7 0.00 0.00 0.00 58 1008.9
20260509184538 55 242 2.6 9.6 0.00 0.00 0.00 59 1008.9
20260509184029 55 113 3.5 8.7 0.00 0.00 0.00 57 1009.0
20260509183528 56 217 1.7 9.6 0.00 0.00 0.00 56 1009.0
20260509183028 56 215 3.5 9.6 0.00 0.00 0.00 55 1009.2
20260509182529 56 130 0.9 11.3 0.00 0.00 0.00 56 1009.2
20260509182031 56 232 5.2 11.3 0.00 0.00 0.00 53 1009.2
20260509181528 57 132 5.2 10.4 0.00 0.00 0.00 52 1009.2
20260509181029 57 222 4.3 10.4 0.00 0.00 0.00 52 1009.2
20260509180529 57 248 3.5 8.7 0.00 0.00 0.00 53 1009.1
20260509180028 57 219 2.6 9.6 0.00 0.00 0.00 51 1009.2
20260509175529 57 183 3.5 9.6 0.00 0.00 0.00 49 1009.2
20260509175027 57 276 2.6 9.6 0.00 0.00 0.00 50 1009.3
20260509174533 57 250 3.5 9.6 0.00 0.00 0.00 52 1009.1
20260509174030 57 219 5.2 11.3 0.00 0.00 0.00 50 1009.2
20260509173526 57 261 3.5 9.6 0.00 0.00 0.00 53 1009.1
20260509173025 57 248 2.6 6.1 0.00 0.00 0.00 55 1009.2
20260509172525 57 247 2.6 7.0 0.00 0.00 0.00 56 1009.3
20260509172026 56 248 2.6 7.8 0.00 0.00 0.00 55 1009.3
20260509171525 56 228 3.5 7.0 0.00 0.00 0.00 56 1009.3
20260509171024 56 233 4.3 7.0 0.00 0.00 0.00 52 1009.4
20260509170524 57 239 3.5 7.8 0.00 0.00 0.00 51 1009.4
20260509170024 57 257 3.5 7.8 0.00 0.00 0.00 50 1009.5
20260509165522 57 230 2.6 5.2 0.00 0.00 0.00 52 1009.5
20260509165022 57 240 3.5 4.3 0.00 0.00 0.00 51 1009.6
20260509164522 57 234 1.7 4.3 0.00 0.00 0.00 49 1009.6
20260509164024 57 232 2.6 6.1 0.00 0.00 0.00 49 1009.6
20260509163521 57 254 1.7 7.0 0.00 0.00 0.00 49 1009.7
20260509163028 57 245 3.5 6.1 0.00 0.00 0.00 49 1009.8
20260509162520 57 254 3.5 6.1 0.00 0.00 0.00 47 1009.8
20260509162020 58 238 3.5 6.1 0.00 0.00 0.00 47 1009.9
20260509161519 59 254 2.6 5.2 0.00 0.00 0.00 46 1009.9
20260509161020 59 225 2.6 7.8 0.00 0.00 0.00 46 1009.9
20260509160518 59 250 3.5 6.1 0.00 0.00 0.00 46 1010.0
20260509160019 59 244 3.5 7.0 0.00 0.00 0.00 44 1010.1
20260509155516 60 247 4.3 7.0 0.00 0.00 0.00 42 1010.2
20260509155020 61 277 1.7 7.0 0.00 0.00 0.00 39 1010.2
20260509154515 61 219 2.6 7.0 0.00 0.00 0.00 37 1010.3
20260509154018 61 164 1.7 4.3 0.00 0.00 0.00 39 1010.4
20260509153512 60 328 0.9 6.1 0.00 0.00 0.00 38 1010.5
20260509153014 60 118 2.6 6.1 0.00 0.00 0.00 38 1010.7
20260509152510 59 216 2.6 5.2 0.00 0.00 0.00 39 1010.8
20260509152014 59 207 0.9 10.4 0.00 0.00 0.00 44 1010.8
20260509151508 59 69 2.6 7.8 0.00 0.00 0.00 37 1010.9
20260509151007 58 205 2.6 7.8 0.00 0.00 0.00 40 1011.0
20260509150508 58 207 2.6 6.1 0.00 0.00 0.00 40 1011.0
20260509150006 58 249 1.7 6.1 0.00 0.00 0.00 38 1011.0
20260509145507 58 244 2.6 7.8 0.00 0.00 0.00 39 1011.0
20260509145005 58 233 3.5 7.8 0.00 0.00 0.00 43 1011.0
20260509144503 58 217 3.5 8.7 0.00 0.00 0.00 41 1011.0
20260509144003 58 230 2.6 8.7 0.00 0.00 0.00 42 1011.1
20260509143502 57 206 3.5 7.0 0.00 0.00 0.00 43 1011.2
20260509143003 57 186 2.6 11.3 0.00 0.00 0.00 40 1011.2
20260509142503 57 161 4.3 11.3 0.00 0.00 0.00 41 1011.3
20260509142100 57 117 1.7 10.4 0.00 0.00 0.00 44 1011.3
20260509141608 57 247 4.3 10.4 0.00 0.00 0.00 42 1011.3
20260509141102 56 209 2.6 13.9 0.00 0.00 0.00 43 1011.3
20260509140558 56 225 4.3 13.9 0.00 0.00 0.00 42 1011.2
20260509140104 56 250 2.6 11.3 0.00 0.00 0.00 43 1011.3
20260509135601 56 216 3.5 11.3 0.00 0.00 0.00 43 1011.3
20260509135057 56 227 3.5 7.8 0.00 0.00 0.00 42 1011.3
20260509134557 56 257 2.6 6.1 0.00 0.00 0.00 43 1011.3
20260509134054 56 153 1.7 7.0 0.00 0.00 0.00 44 1011.3
20260509133553 56 122 3.5 10.4 0.00 0.00 0.00 43 1011.3
20260509133053 55 241 2.6 10.4 0.00 0.00 0.00 44 1011.3
20260509132552 55 227 2.6 8.7 0.00 0.00 0.00 45 1011.3
20260509132051 54 229 3.5 12.2 0.00 0.00 0.00 47 1011.4
20260509131549 54 234 3.5 12.2 0.00 0.00 0.00 45 1011.6
20260509131048 54 220 3.5 8.7 0.00 0.00 0.00 47 1011.6
20260509130551 54 226 2.6 7.0 0.00 0.00 0.00 50 1011.7
20260509130049 53 162 2.6 9.6 0.00 0.00 0.00 49 1011.8
20260509125543 53 228 3.5 11.3 0.00 0.00 0.00 48 1011.8
20260509125043 52 266 2.6 7.0 0.00 0.00 0.00 53 1011.8
20260509124541 52 135 1.7 7.8 0.00 0.00 0.00 48 1011.9
20260509124039 51 239 1.7 7.8 0.00 0.00 0.00 52 1012.0
20260509123538 51 171 2.6 5.2 0.00 0.00 0.00 51 1012.0
20260509123045 51 219 0.9 4.3 0.00 0.00 0.00 54 1012.0
20260509122534 50 244 1.7 3.5 0.00 0.00 0.00 55 1012.0
20260509122034 49 238 0.9 3.5 0.00 0.00 0.00 60 1011.9
20260509121531 48 238 0.9 6.1 0.00 0.00 0.00 56 1011.9
20260509121030 48 231 1.7 4.3 0.00 0.00 0.00 58 1011.9
20260509120531 48 227 1.7 4.3 0.00 0.00 0.00 59 1011.9
20260509120028 47 166 0.9 2.6 0.00 0.00 0.00 57 1011.9
20260509115528 46 188 0.9 3.5 0.00 0.00 0.00 58 1012.0
20260509115031 45 219 0.9 3.5 0.00 0.00 0.00 60 1012.0
20260509114525 45 121 0.9 4.3 0.00 0.00 0.00 61 1012.0
20260509114021 44 140 0.9 3.5 0.00 0.00 0.00 64 1012.0
20260509113520 43 138 0.9 2.6 0.00 0.00 0.00 65 1012.1
20260509113019 42 205 0.9 1.7 0.00 0.00 0.00 66 1012.1
20260509112518 41 209 0.0 1.7 0.00 0.00 0.00 68 1012.1
20260509112018 41 211 0.9 2.6 0.00 0.00 0.00 69 1012.1
20260509111529 40 211 0.9 2.6 0.00 0.00 0.00 70 1012.0
20260509111018 39 211 0.0 1.7 0.00 0.00 0.00 70 1012.0
20260509110518 39 211 0.9 1.7 0.00 0.00 0.00 72 1012.0
20260509110018 38 211 0.0 1.7 0.00 0.00 0.00 73 1012.1
20260509105517 38 211 0.0 2.6 0.00 0.00 0.00 73 1012.0
20260509105016 38 211 0.9 1.7 0.00 0.00 0.00 74 1012.1
20260509104525 37 211 0.9 1.7 0.00 0.00 0.00 76 1012.1
20260509104014 37 211 0.0 1.7 0.00 0.00 0.00 74 1012.1
20260509103514 37 211 0.0 1.7 0.00 0.00 0.00 74 1012.0
20260509103012 38 211 0.9 1.7 0.00 0.00 0.00 73 1011.9
20260509102513 38 211 0.0 0.9 0.00 0.00 0.00 72 1011.9
20260509102010 38 211 0.0 0.9 0.00 0.00 0.00 71 1011.8
20260509101510 38 211 0.0 1.7 0.00 0.00 0.00 68 1011.8
20260509101009 38 211 0.9 1.7 0.00 0.00 0.00 68 1011.8